Time,TemperatureF,DewpointF,PressureIn,WindDirection,WindDirectionDegrees,WindSpeedMPH,WindSpeedGustMPH,Humidity,HourlyPrecipIn,Conditions,Clouds,dailyrainin,SolarRadiationWatts/m^2,SoftwareType,DateUTC
2013-09-02 00:22:00,48.0,45.0,-100.00,ESE,109,2.0,4.0,88,0.00,,,0.01,0.000000,,2013-09-02 06:22:00,
2013-09-02 00:32:00,48.0,45.0,-100.00,ESE,109,2.0,4.0,88,0.00,,,0.01,0.000000,,2013-09-02 06:32:00,
2013-09-02 00:43:00,48.0,45.0,-100.00,ESE,109,2.0,4.0,88,0.00,,,0.01,0.000000,,2013-09-02 06:43:00,
2013-09-02 00:52:00,48.0,45.0,-100.00,ESE,109,2.0,4.0,88,0.00,,,0.01,0.000000,,2013-09-02 06:52:00,
2013-09-02 01:21:00,47.0,44.0,-100.00,ESE,112,0.0,5.0,90,0.00,,,0.01,0.000000,,2013-09-02 07:21:00,
2013-09-02 01:33:00,47.0,44.0,-100.00,ESE,112,0.0,5.0,90,0.00,,,0.01,0.000000,,2013-09-02 07:33:00,
2013-09-02 01:42:00,47.0,44.0,-100.00,ESE,112,0.0,5.0,90,0.00,,,0.01,0.000000,,2013-09-02 07:42:00,
2013-09-02 01:52:00,47.0,44.0,-100.00,ESE,112,0.0,5.0,90,0.00,,,0.01,0.000000,,2013-09-02 07:52:00,
2013-09-02 02:22:00,46.0,44.0,-100.00,NNE,21,2.0,4.0,92,0.00,,,0.01,0.000000,,2013-09-02 08:22:00,
2013-09-02 02:32:00,46.0,44.0,-100.00,NNE,21,2.0,4.0,92,0.00,,,0.01,0.000000,,2013-09-02 08:32:00,
2013-09-02 02:42:00,46.0,44.0,-100.00,NNE,21,2.0,4.0,92,0.00,,,0.01,0.000000,,2013-09-02 08:42:00,
2013-09-02 02:52:00,46.0,44.0,-100.00,NNE,21,2.0,4.0,92,0.00,,,0.01,0.000000,,2013-09-02 08:52:00,
2013-09-02 03:22:00,45.0,44.0,-100.00,North,355,3.0,4.0,95,0.00,,,0.01,0.000000,,2013-09-02 09:22:00,
2013-09-02 03:34:00,45.0,44.0,-100.00,North,355,3.0,4.0,95,0.00,,,0.01,0.000000,,2013-09-02 09:34:00,
2013-09-02 03:43:00,45.0,44.0,-100.00,North,355,3.0,4.0,95,0.00,,,0.01,0.000000,,2013-09-02 09:43:00,
2013-09-02 03:53:00,45.0,44.0,-100.00,North,355,3.0,4.0,95,0.00,,,0.01,0.000000,,2013-09-02 09:53:00,
2013-09-02 04:23:00,45.0,43.0,-100.00,NW,319,4.0,5.0,93,0.00,,,0.01,0.000000,,2013-09-02 10:23:00,
2013-09-02 04:33:00,45.0,43.0,-100.00,NW,319,4.0,5.0,93,0.00,,,0.01,0.000000,,2013-09-02 10:33:00,
2013-09-02 04:42:00,45.0,43.0,-100.00,NW,319,4.0,5.0,93,0.00,,,0.01,0.000000,,2013-09-02 10:42:00,
2013-09-02 04:53:00,45.0,43.0,-100.00,NW,319,4.0,5.0,93,0.00,,,0.01,0.000000,,2013-09-02 10:53:00,
2013-09-02 05:22:00,44.0,43.0,-100.00,WNW,287,4.0,5.0,95,0.00,,,0.01,0.000000,,2013-09-02 11:22:00,
2013-09-02 05:33:00,44.0,43.0,-100.00,WNW,287,4.0,5.0,95,0.00,,,0.01,0.000000,,2013-09-02 11:33:00,
2013-09-02 05:42:00,44.0,43.0,-100.00,WNW,287,4.0,5.0,95,0.00,,,0.01,0.000000,,2013-09-02 11:42:00,
2013-09-02 05:52:00,44.0,43.0,-100.00,WNW,287,4.0,5.0,95,0.00,,,0.01,0.000000,,2013-09-02 11:52:00,
2013-09-02 06:21:00,42.0,41.0,-100.00,SSE,154,3.0,5.0,96,0.00,,,0.01,0.000000,,2013-09-02 12:21:00,
2013-09-02 06:32:00,42.0,41.0,-100.00,SSE,154,3.0,5.0,96,0.00,,,0.01,0.000000,,2013-09-02 12:32:00,
2013-09-02 06:52:00,42.0,41.0,-100.00,SSE,154,3.0,5.0,96,0.00,,,0.01,0.000000,,2013-09-02 12:52:00,
2013-09-02 07:22:00,43.0,42.0,-100.00,NNW,330,3.0,4.0,97,0.00,,,0.01,5.000000,,2013-09-02 13:22:00,
2013-09-02 07:32:00,43.0,42.0,-100.00,NNW,330,3.0,4.0,97,0.00,,,0.01,5.000000,,2013-09-02 13:32:00,
2013-09-02 07:42:00,43.0,42.0,-100.00,NNW,330,3.0,4.0,97,0.00,,,0.01,5.000000,,2013-09-02 13:42:00,
2013-09-02 07:52:00,43.0,42.0,-100.00,NNW,330,3.0,4.0,97,0.00,,,0.01,5.000000,,2013-09-02 13:52:00,
2013-09-02 08:22:00,44.0,43.0,-100.00,SE,140,1.0,4.0,97,0.00,,,0.01,45.000000,,2013-09-02 14:22:00,
2013-09-02 08:32:00,44.0,43.0,-100.00,SE,140,1.0,4.0,97,0.00,,,0.01,45.000000,,2013-09-02 14:32:00,
2013-09-02 08:52:00,44.0,43.0,-100.00,SE,140,1.0,4.0,97,0.00,,,0.01,45.000000,,2013-09-02 14:52:00,
2013-09-02 09:23:00,52.0,47.0,-100.00,NNE,23,3.0,5.0,82,0.00,,,0.01,267.000000,,2013-09-02 15:23:00,
2013-09-02 09:34:00,52.0,47.0,-100.00,NNE,23,3.0,5.0,82,0.00,,,0.01,267.000000,,2013-09-02 15:34:00,
2013-09-02 09:44:00,52.0,47.0,-100.00,NNE,23,3.0,5.0,82,0.00,,,0.01,267.000000,,2013-09-02 15:44:00,
2013-09-02 09:54:00,52.0,47.0,-100.00,NNE,23,3.0,5.0,82,0.00,,,0.01,267.000000,,2013-09-02 15:54:00,
2013-09-02 10:24:00,56.0,46.0,-100.00,ENE,58,4.0,6.0,69,0.00,,,0.01,574.000000,,2013-09-02 16:24:00,
2013-09-02 10:34:00,56.0,46.0,-100.00,ENE,58,4.0,6.0,69,0.00,,,0.01,574.000000,,2013-09-02 16:34:00,
2013-09-02 10:42:00,56.0,46.0,-100.00,ENE,58,4.0,6.0,69,0.00,,,0.01,574.000000,,2013-09-02 16:42:00,
2013-09-02 10:53:00,56.0,46.0,-100.00,ENE,58,4.0,6.0,69,0.00,,,0.01,574.000000,,2013-09-02 16:53:00,
2013-09-02 11:23:00,64.0,45.0,-100.00,East,84,5.0,8.0,50,0.00,,,-99.99,837.000000,,2013-09-02 17:23:00,
2013-09-02 11:34:00,64.0,45.0,-100.00,East,84,5.0,8.0,50,0.00,,,-99.99,837.000000,,2013-09-02 17:34:00,
2013-09-02 11:44:00,64.0,45.0,-100.00,East,84,5.0,8.0,50,0.00,,,-99.99,837.000000,,2013-09-02 17:44:00,
2013-09-02 11:52:00,64.0,45.0,-100.00,East,84,5.0,8.0,50,0.00,,,-99.99,837.000000,,2013-09-02 17:52:00,
2013-09-02 12:22:00,66.0,44.0,-100.00,North,350,5.0,10.0,45,0.00,,,0.01,865.000000,,2013-09-02 18:22:00,
2013-09-02 12:32:00,66.0,44.0,-100.00,North,350,5.0,10.0,45,0.00,,,0.01,865.000000,,2013-09-02 18:32:00,
2013-09-02 12:42:00,66.0,44.0,-100.00,North,350,5.0,10.0,45,0.00,,,0.01,865.000000,,2013-09-02 18:42:00,
2013-09-02 12:52:00,66.0,44.0,-100.00,North,350,5.0,10.0,45,0.00,,,0.01,865.000000,,2013-09-02 18:52:00,
2013-09-02 13:22:00,68.0,41.0,-100.00,SSW,202,3.0,6.0,38,0.00,,,0.01,388.000000,,2013-09-02 19:22:00,
2013-09-02 13:32:00,68.0,41.0,-100.00,SSW,202,3.0,6.0,38,0.00,,,0.01,388.000000,,2013-09-02 19:32:00,
2013-09-02 13:42:00,68.0,41.0,-100.00,SSW,202,3.0,6.0,38,0.00,,,0.01,388.000000,,2013-09-02 19:42:00,
2013-09-02 13:52:00,68.0,41.0,-100.00,SSW,202,3.0,6.0,38,0.00,,,0.01,388.000000,,2013-09-02 19:52:00,
2013-09-02 14:22:00,70.0,38.0,-100.00,SSW,211,8.0,12.0,31,0.00,,,0.01,857.000000,,2013-09-02 20:22:00,
2013-09-02 14:32:00,70.0,38.0,-100.00,SSW,211,8.0,12.0,31,0.00,,,0.01,857.000000,,2013-09-02 20:32:00,
2013-09-02 14:42:00,70.0,38.0,-100.00,SSW,211,8.0,12.0,31,0.00,,,0.01,857.000000,,2013-09-02 20:42:00,
2013-09-02 14:52:00,70.0,38.0,-100.00,SSW,211,8.0,12.0,31,0.00,,,0.01,857.000000,,2013-09-02 20:52:00,
2013-09-02 15:23:00,73.0,35.0,-100.00,WSW,238,7.0,14.0,25,0.00,,,0.01,889.000000,,2013-09-02 21:23:00,
2013-09-02 15:34:00,73.0,35.0,-100.00,WSW,238,7.0,14.0,25,0.00,,,0.01,889.000000,,2013-09-02 21:34:00,
2013-09-02 15:44:00,73.0,35.0,-100.00,WSW,238,7.0,14.0,25,0.00,,,0.01,889.000000,,2013-09-02 21:44:00,
2013-09-02 15:54:00,73.0,35.0,-100.00,WSW,238,7.0,14.0,25,0.00,,,0.01,889.000000,,2013-09-02 21:54:00,
2013-09-02 16:24:00,66.0,40.0,-100.00,SW,235,7.0,15.0,39,0.00,,,0.01,406.000000,,2013-09-02 22:24:00,
2013-09-02 16:33:00,66.0,40.0,-100.00,SW,235,7.0,15.0,39,0.00,,,0.01,406.000000,,2013-09-02 22:33:00,
2013-09-02 16:44:00,66.0,40.0,-100.00,SW,235,7.0,15.0,39,0.00,,,0.01,406.000000,,2013-09-02 22:44:00,
2013-09-02 16:54:00,66.0,40.0,-100.00,SW,235,7.0,15.0,39,0.00,,,0.01,406.000000,,2013-09-02 22:54:00,
2013-09-02 17:22:00,66.0,38.0,-100.00,SW,222,8.0,13.0,36,0.00,,,0.01,444.000000,,2013-09-02 23:22:00,
2013-09-02 17:34:00,66.0,38.0,-100.00,SW,222,8.0,13.0,36,0.00,,,0.01,444.000000,,2013-09-02 23:34:00,
2013-09-02 17:42:00,66.0,38.0,-100.00,SW,222,8.0,13.0,36,0.00,,,0.01,444.000000,,2013-09-02 23:42:00,
2013-09-02 17:52:00,66.0,38.0,-100.00,SW,222,8.0,13.0,36,0.00,,,0.01,444.000000,,2013-09-02 23:52:00,
2013-09-02 18:22:00,64.0,41.0,-100.00,SW,224,7.0,15.0,43,0.00,,,0.00,133.000000,,2013-09-03 00:22:00,
2013-09-02 18:32:00,64.0,41.0,-100.00,SW,224,7.0,15.0,43,0.00,,,0.00,133.000000,,2013-09-03 00:32:00,
2013-09-02 18:42:00,64.0,41.0,-100.00,SW,224,7.0,15.0,43,0.00,,,0.00,133.000000,,2013-09-03 00:42:00,
2013-09-02 18:52:00,64.0,41.0,-100.00,SW,224,7.0,15.0,43,0.00,,,0.00,133.000000,,2013-09-03 00:52:00,
2013-09-02 19:21:00,60.0,41.0,-100.00,West,267,8.0,18.0,50,0.00,,,-99.99,31.000000,,2013-09-03 01:21:00,
2013-09-02 19:32:00,60.0,41.0,-100.00,West,267,8.0,18.0,50,0.00,,,-99.99,31.000000,,2013-09-03 01:32:00,
2013-09-02 19:52:00,60.0,41.0,-100.00,West,267,8.0,18.0,50,0.00,,,-99.99,31.000000,,2013-09-03 01:52:00,
2013-09-02 20:21:00,58.0,37.0,-100.00,WNW,285,2.0,13.0,46,0.00,,,0.00,30.000000,,2013-09-03 02:21:00,
2013-09-02 20:33:00,58.0,37.0,-100.00,WNW,285,2.0,13.0,46,0.00,,,0.00,30.000000,,2013-09-03 02:33:00,
2013-09-02 20:42:00,58.0,37.0,-100.00,WNW,285,2.0,13.0,46,0.00,,,0.00,30.000000,,2013-09-03 02:42:00,
2013-09-02 20:52:00,58.0,37.0,-100.00,WNW,285,2.0,13.0,46,0.00,,,0.00,30.000000,,2013-09-03 02:52:00,
2013-09-02 21:23:00,55.0,39.0,-100.00,SSE,151,3.0,5.0,55,0.00,,,0.00,0.000000,,2013-09-03 03:23:00,
2013-09-02 21:34:00,55.0,39.0,-100.00,SSE,151,3.0,5.0,55,0.00,,,0.00,0.000000,,2013-09-03 03:34:00,
2013-09-02 21:45:00,55.0,39.0,-100.00,SSE,151,3.0,5.0,55,0.00,,,0.00,0.000000,,2013-09-03 03:45:00,
2013-09-02 21:55:00,55.0,39.0,-100.00,SSE,151,3.0,5.0,55,0.00,,,0.00,0.000000,,2013-09-03 03:55:00,
2013-09-02 22:25:00,55.0,39.0,-100.00,SW,229,5.0,8.0,54,0.00,,,0.00,0.000000,,2013-09-03 04:25:00,
2013-09-02 22:34:00,55.0,39.0,-100.00,SW,229,5.0,8.0,54,0.00,,,0.00,0.000000,,2013-09-03 04:34:00,
2013-09-02 22:44:00,55.0,39.0,-100.00,SW,229,5.0,8.0,54,0.00,,,0.00,0.000000,,2013-09-03 04:44:00,
2013-09-02 22:53:00,55.0,39.0,-100.00,SW,229,5.0,8.0,54,0.00,,,0.00,0.000000,,2013-09-03 04:53:00,
2013-09-02 23:23:00,53.0,39.0,-100.00,WSW,253,6.0,9.0,59,0.00,,,0.00,0.000000,,2013-09-03 05:23:00,
2013-09-02 23:34:00,53.0,39.0,-100.00,WSW,253,6.0,9.0,59,0.00,,,0.00,0.000000,,2013-09-03 05:34:00,
2013-09-02 23:43:00,53.0,39.0,-100.00,WSW,253,6.0,9.0,59,0.00,,,0.00,0.000000,,2013-09-03 05:43:00,
2013-09-02 23:52:00,53.0,39.0,-100.00,WSW,253,6.0,9.0,59,0.00,,,0.00,0.000000,,2013-09-03 05:52:00,